| time (UTC) | temp F | wind direction | speed MPH | gust MPH | rain 1hr in | rain 24hr in | rain mn in | humidity % | barometer mb |
| 20260505051638 | 60 | 104 | 3.0 | 11.0 | 0.00 | 0.00 | 0.00 | 50 | 1005.3 |
| 20260505041639 | 63 | 355 | 0.0 | 2.0 | 0.00 | 0.00 | 0.00 | 45 | 1004.7 |
| 20260505040043 | 63 | 355 | 0.0 | 3.0 | 0.00 | 0.00 | 0.00 | 44 | 1004.7 |
| 20260505034538 | 64 | 355 | 1.0 | 6.0 | 0.00 | 0.00 | 0.00 | 42 | 1004.7 |
| 20260505033043 | 66 | 355 | 0.0 | 6.0 | 0.00 | 0.00 | 0.00 | 40 | 1004.4 |
| 20260505031638 | 67 | 360 | 2.0 | 10.0 | 0.00 | 0.00 | 0.00 | 39 | 1004.2 |
| 20260505030038 | 68 | 360 | 2.0 | 12.0 | 0.00 | 0.00 | 0.00 | 39 | 1004.1 |
| 20260505024537 | 68 | 350 | 6.0 | 13.0 | 0.00 | 0.00 | 0.00 | 39 | 1004.1 |
| 20260505023036 | 69 | 5 | 6.0 | 13.0 | 0.00 | 0.00 | 0.00 | 37 | 1003.9 |
| 20260505021640 | 72 | 9 | 6.0 | 11.0 | 0.00 | 0.00 | 0.00 | 34 | 1003.9 |
| 20260505020035 | 72 | 11 | 5.0 | 14.0 | 0.00 | 0.00 | 0.00 | 33 | 1003.8 |
| 20260505014535 | 72 | 11 | 7.0 | 16.0 | 0.00 | 0.00 | 0.00 | 32 | 1003.7 |
| 20260505013034 | 73 | 5 | 9.0 | 18.0 | 0.00 | 0.00 | 0.00 | 31 | 1003.7 |
| 20260505011634 | 75 | 5 | 5.0 | 16.0 | 0.00 | 0.00 | 0.00 | 32 | 1003.8 |
| 20260505010033 | 75 | 26 | 8.0 | 15.0 | 0.00 | 0.00 | 0.00 | 30 | 1003.8 |
| 20260505004535 | 76 | 12 | 4.0 | 15.0 | 0.00 | 0.00 | 0.00 | 28 | 1004.0 |
| 20260505003031 | 75 | 312 | 7.0 | 20.0 | 0.00 | 0.00 | 0.00 | 28 | 1003.9 |
| 20260505001633 | 76 | 10 | 9.0 | 21.0 | 0.00 | 0.00 | 0.00 | 31 | 1004.0 |
| 20260505000032 | 77 | 343 | 6.0 | 20.0 | 0.00 | 0.00 | 0.00 | 31 | 1003.9 |
| 20260504234528 | 76 | 345 | 7.0 | 21.0 | 0.00 | 0.00 | 0.00 | 31 | 1004.0 |
| 20260504233025 | 76 | 324 | 11.0 | 21.0 | 0.00 | 0.00 | 0.00 | 31 | 1004.1 |
| 20260504231624 | 76 | 355 | 11.0 | 21.0 | 0.00 | 0.00 | 0.00 | 30 | 1004.0 |
| 20260504230027 | 76 | 9 | 9.0 | 19.0 | 0.00 | 0.00 | 0.00 | 31 | 1004.1 |
| 20260504224521 | 76 | 333 | 6.0 | 23.0 | 0.00 | 0.00 | 0.00 | 33 | 1004.2 |
| 20260504223020 | 76 | 9 | 6.0 | 16.0 | 0.00 | 0.00 | 0.00 | 32 | 1004.3 |
| 20260504221619 | 76 | 315 | 7.0 | 19.0 | 0.00 | 0.00 | 0.00 | 35 | 1004.4 |
| 20260504220021 | 75 | 305 | 6.0 | 19.0 | 0.00 | 0.00 | 0.00 | 34 | 1004.6 |
| 20260504214614 | 75 | 5 | 7.0 | 17.0 | 0.00 | 0.00 | 0.00 | 36 | 1004.6 |
| 20260504213014 | 75 | 355 | 7.0 | 23.0 | 0.00 | 0.00 | 0.00 | 34 | 1004.7 |
| 20260504211613 | 75 | 299 | 8.0 | 25.0 | 0.00 | 0.00 | 0.00 | 36 | 1004.8 |
| 20260504210014 | 75 | 281 | 7.0 | 24.0 | 0.00 | 0.00 | 0.00 | 35 | 1004.9 |
| 20260504204511 | 74 | 329 | 6.0 | 19.0 | 0.00 | 0.00 | 0.00 | 35 | 1005.0 |
| 20260504203012 | 74 | 203 | 5.0 | 15.0 | 0.00 | 0.00 | 0.00 | 39 | 1005.1 |
| 20260504201606 | 73 | 267 | 8.0 | 25.0 | 0.00 | 0.00 | 0.00 | 41 | 1005.1 |
| 20260504200012 | 73 | 244 | 8.0 | 19.0 | 0.00 | 0.00 | 0.00 | 40 | 1005.2 |
| 20260504194506 | 72 | 318 | 10.0 | 19.0 | 0.00 | 0.00 | 0.00 | 39 | 1005.2 |
| 20260504193004 | 72 | 278 | 9.0 | 19.0 | 0.00 | 0.00 | 0.00 | 41 | 1005.4 |
| 20260504191602 | 71 | 186 | 5.0 | 17.0 | 0.00 | 0.00 | 0.00 | 43 | 1005.4 |
| 20260504190010 | 71 | 231 | 6.0 | 15.0 | 0.00 | 0.00 | 0.00 | 44 | 1005.4 |
| 20260504184511 | 70 | 215 | 7.0 | 19.0 | 0.00 | 0.00 | 0.00 | 42 | 1005.4 |
| 20260504183003 | 70 | 248 | 7.0 | 19.0 | 0.00 | 0.00 | 0.00 | 40 | 1005.5 |
| 20260504181600 | 69 | 188 | 8.0 | 21.0 | 0.00 | 0.00 | 0.00 | 44 | 1005.5 |
| 20260504174606 | 68 | 241 | 7.0 | 19.0 | 0.00 | 0.00 | 0.00 | 46 | 1005.5 |
| 20260504173103 | 68 | 254 | 6.0 | 17.0 | 0.00 | 0.00 | 0.00 | 42 | 1005.5 |
| 20260504171555 | 68 | 202 | 5.0 | 11.0 | 0.00 | 0.00 | 0.00 | 44 | 1005.4 |